Flag for Venezuela Weather past 2 weeks in Barquisimeto, Venezuela

Now
72 °F

Clear.


Feels Like: 72 °F
Forecast: 66 / 92 °F
Wind: 7 mph from Southeast

Location: Barquisimeto Airport

Current Time: Apr 1, 2015 at 2:00:10 AM

Latest Report: Mar 31, 2015 at 10:30 PM


Visibility: 10 mi

Pressure: 30.01 "Hg

Humidity: 78%

Dew point: 64 °F

Location of BarquisimetoLocation

Historic Weather in Barquisimeto — Graph

°F

Barquisimeto temperature yesterday

Maximum temperature yesterday: 91 °F (at 2:30 PM)
Minimum temperature yesterday: 68 °F (at 5:30 AM)
Average temperature yesterday: 80 °F

Past Weeks' High & Low Weather Summary

 TemperatureHumidityPressure
High95 °F (Mar 23, 2:30 PM)88% (Mar 19, 5:30 AM)30.09 "Hg (Mar 19, 5:30 AM)
Low66 °F (Mar 21, 6:30 AM)28% (Mar 26, 3:30 PM)29.89 "Hg (Mar 31, 4:30 PM)
Average79 °F61%30.02 "Hg
* Reported Mar 16 10:30 PM — Mar 31 10:30 PM, Barquisimeto, Weather by CustomWeather, © 2015

Note: Actual official high and low records may vary slightly from our data, if they occured in-between our weather recording intervals... More about our weather records

Advertising

Barquisimeto weather history for previous 24 hours

 ConditionsComfort  
Time TempWeatherWind HumidityBarometerVisibility
10:30 PM
Tue, Mar 31
72 °FClear.7 mph78%30.01 "Hg10 mi
9:30 PM73 °FPassing clouds.7 mph74%30.01 "HgN/A
8:30 PM75 °FPassing clouds.10 mph65%29.98 "HgN/A
7:30 PM77 °FClear.10 mph57%29.95 "Hg10 mi
6:30 PM82 °FPassing clouds.15 mph45%29.92 "HgN/A
5:30 PM88 °FPassing clouds.15 mph35%29.89 "HgN/A
4:30 PM91 °FPassing clouds.12 mph32%29.89 "HgN/A
3:30 PM90 °FPassing clouds.14 mph33%29.92 "HgN/A
2:30 PM91 °FPassing clouds.15 mph32%29.95 "HgN/A
1:30 PM88 °FPassing clouds.15 mph35%29.98 "HgN/A
12:30 PM86 °FPassing clouds.13 mph40%30.01 "HgN/A
11:30 AM84 °FPassing clouds.12 mph43%30.04 "HgN/A
10:30 AM82 °FPassing clouds.7 mph45%30.07 "HgN/A
9:30 AM79 °FPassing clouds.5 mph54%30.07 "HgN/A
8:30 AM77 °FScattered clouds.5 mph57%30.07 "HgN/A
7:30 AM70 °FPassing clouds.2 mph78%30.04 "HgN/A
6:30 AM70 °FPassing clouds.2 mph78%30.04 "HgN/A
5:30 AM68 °FPassing clouds.2 mph83%30.01 "HgN/A
Weather by CustomWeather, © 2015

See weather overviewHow to use our weather pages